This is the latest recevied weather packets stored in our database for station/object WD8INF-9. If no packets are shown the sender has not sent any weather packets the latest 10 day(s).
| Time | Temp. | Humidity | Pressure | Rain* | Wind** | Luminosity | Snow |
|---|---|---|---|---|---|---|---|
| 1777592710 | 13.33° C | - | 1013.2 hPa | 0 mm | - | - | - |
| 1777592410 | 13.33° C | - | 1013.2 hPa | 0 mm | - | - | - |
| 1777592109 | 13.89° C | - | 1013.4 hPa | 0 mm | - | - | - |
| 1777591809 | 13.89° C | - | 1013.1 hPa | 0 mm | - | - | - |
| 1777591509 | 15° C | - | 1013.3 hPa | 0 mm | - | - | - |
| 1777591209 | 16.11° C | - | 1013.3 hPa | 0 mm | - | - | - |
| 1777590907 | 15° C | - | 1013.2 hPa | 0 mm | - | - | - |
| 1777590607 | 14.44° C | - | 1013.5 hPa | 0 mm | - | - | - |
| 1777590306 | 14.44° C | - | 1013.4 hPa | 0 mm | - | - | - |
| 1777590006 | 15° C | - | 1013.7 hPa | 0 mm | - | - | - |
| 1777589706 | 15° C | - | 1013.4 hPa | 0 mm | - | - | - |
| 1777589406 | 16.11° C | - | 1013.6 hPa | 0 mm | - | - | - |
| 1777589105 | 15.56° C | - | 1013.7 hPa | 0 mm | - | - | - |
| 1777588805 | 18.33° C | - | 1013.7 hPa | 0 mm | - | - | - |
| 1777588505 | 18.89° C | - | 1013.9 hPa | 0 mm | - | - | - |
| 1777588205 | 23.89° C | - | 1013.8 hPa | 0 mm | - | - | - |
| 1777587905 | 23.33° C | - | 1013.6 hPa | 0 mm | - | - | - |
| 1777587604 | 21.11° C | - | 1013.7 hPa | 0 mm | - | - | - |
| 1777587304 | 15.56° C | - | 1013.5 hPa | 0 mm | - | - | - |
| 1777587004 | 16.67° C | - | 1013.6 hPa | 0 mm | - | - | - |
| 1777586704 | 18.33° C | - | 1013.8 hPa | 0 mm | - | - | - |
| 1777586403 | 22.78° C | - | 1013.7 hPa | 0 mm | - | - | - |
| 1777586103 | 18.89° C | - | 1013.8 hPa | 0 mm | - | - | - |
| 1777585803 | 18.33° C | - | 1013.8 hPa | 0 mm | - | - | - |
| 1777585503 | 17.22° C | - | 1013.7 hPa | 0 mm | - | - | - |
* Rain since midnight (hover to see other rain measurements)
** Current wind speed in m/s (hover to see current wind gust speed)